Flag for Netherlands Weather past 2 weeks in Amersfoort, Netherlands

Now
54 °F

Fog.


Feels Like: 54 °F
Forecast: 54 / 58 °F
Wind: 1 mph from South

Location: Deelen

Current Time: Sep 23, 2014 at 10:44:30 PM

Latest Report: Sep 23, 2014 at 9:55 PM


Visibility: 4 mi

Pressure: 30.04 "Hg

Humidity: 88%

Dew point: 50 °F

Location of AmersfoortLocation

Historic Weather in Amersfoort — Graph

°F

Amersfoort temperature yesterday

Maximum temperature yesterday: 63 °F (at 2:55 PM)
Minimum temperature yesterday: 43 °F (at 11:55 PM)
Average temperature yesterday: 54 °F

Past Weeks' High & Low Weather Summary

 TemperatureHumidityPressure
High77 °F (Sep 17, 2:55 PM)100% (Sep 9, 12:25 AM)30.27 "Hg (Sep 9, 12:25 AM)
Low41 °F (Sep 23, 7:55 AM)49% (Sep 11, 4:25 PM)29.83 "Hg (Sep 18, 5:25 AM)
Average61 °F84%30.05 "Hg
* Reported Sep 8 9:25 PM — Sep 23 9:25 PM, Amersfoort, Weather by CustomWeather, © 2014

Note: Actual official high and low records may vary slightly from our data, if they occured in-between our weather recording intervals... More about our weather records

Advertising

Amersfoort weather history for previous 24 hours

 ConditionsComfort  
Time TempWeatherWind HumidityBarometerVisibility
9:25 PM
Sep 23
54 °FFog.2 mph82%30.04 "Hg4 mi
8:55 PM54 °FFog.2 mph88%30.07 "Hg4 mi
8:25 PM52 °FFog.1 mph94%30.07 "Hg4 mi
7:55 PM54 °FHaze.2 mph88%30.07 "Hg4 mi
7:25 PM57 °FPassing clouds.3 mph77%30.07 "HgN/A
6:55 PM59 °FPartly sunny.5 mph72%30.07 "HgN/A
6:25 PM61 °FScattered clouds.7 mph63%30.07 "HgN/A
5:55 PM63 °FPartly sunny.2 mph64%30.07 "HgN/A
5:25 PM61 °FMostly cloudy.3 mph63%30.07 "HgN/A
4:55 PM63 °FOvercast.5 mph64%30.09 "HgN/A
4:25 PM61 °FOvercast.7 mph68%30.09 "HgN/A
3:55 PM63 °FMostly cloudy.9 mph59%30.09 "HgN/A
3:25 PM63 °FPartly sunny.7 mph59%30.09 "HgN/A
2:55 PM63 °FOvercast.3 mph59%30.12 "HgN/A
2:25 PM63 °FBroken clouds.7 mph59%30.12 "HgN/A
1:55 PM63 °FPassing clouds.7 mph59%30.12 "HgN/A
1:25 PM61 °FPartly sunny.7 mph63%30.12 "HgN/A
12:55 PM61 °FPassing clouds.6 mph59%30.15 "HgN/A
12:25 PM61 °FPassing clouds.6 mph63%30.15 "HgN/A
11:55 AM61 °FPassing clouds.6 mph59%30.15 "HgN/A
11:25 AM59 °FScattered clouds.7 mph68%30.15 "HgN/A
10:55 AM57 °FPassing clouds.6 mph72%30.15 "HgN/A
10:25 AM55 °FOvercast.6 mph77%30.15 "HgN/A
9:55 AM54 °FPartly sunny.5 mph88%30.15 "HgN/A
9:25 AM50 °FFog.1 mph88%30.15 "Hg5 mi
8:55 AM48 °FFog.2 mph94%30.15 "Hg4 mi
8:25 AM43 °FFog.2 mph100%30.15 "Hg4 mi
7:55 AM41 °FFog.1 mph100%30.15 "Hg4 mi
7:25 AM43 °FPassing clouds.2 mph93%30.15 "HgN/A
6:55 AM43 °FFog.1 mph100%30.15 "Hg4 mi
6:25 AM45 °FFog.2 mph100%30.15 "Hg2 mi
5:55 AM46 °FFog.1 mph93%30.15 "Hg4 mi
5:25 AM46 °FFog.1 mph93%30.15 "Hg4 mi
4:55 AM48 °FFog.2 mph94%30.15 "Hg4 mi
4:25 AM48 °FFog.1 mph94%30.15 "Hg6 mi
3:55 AM48 °FFog.1 mph94%30.15 "Hg6 mi
3:25 AM46 °FFog.2 mph100%30.15 "Hg6 mi
2:55 AM46 °FFog.1 mph93%30.15 "Hg6 mi
2:25 AM46 °FFog.1 mph100%30.18 "Hg6 mi
1:55 AM45 °FPassing clouds.1 mph100%30.18 "HgN/A
1:25 AM46 °FMostly cloudy.No wind100%30.18 "HgN/A
12:55 AM43 °FFog.1 mph100%30.18 "Hg6 mi
12:25 AM43 °FFog.1 mph100%30.18 "Hg6 mi
11:55 PM
Sep 22
43 °FPassing clouds.1 mph100%30.18 "HgN/A
11:25 PM45 °FPassing clouds.No wind100%30.18 "HgN/A
10:55 PM45 °FFog.1 mph100%30.18 "Hg6 mi
10:25 PM45 °FHigh level clouds.1 mph100%30.15 "HgN/A
Weather by CustomWeather, © 2014

See weather overviewHow to use our weather pages